Location: Augirein
(42.9320°N, 0.9181°E)
Time: 15:11:04
(UTC+00:00)

Spot 4 Rocket - Pass Details

Date: 20 June 2021
Orbit: 776 x 781 km, 98.7° (Epoch: 01 August)

Event Time Altitude Azimuth Distance (km) Brightness Sun altitude
Rises 03:32:23 0° 14° (NNE) 3,267 8.3 -7.3°
Reaches altitude 10° 03:34:43 10° 15° (NNE) 2,335 7.5 -7.0°
Maximum altitude 03:39:52 83° 103° (ESE) 789 4.2 -6.3°
Drops below altitude 10° 03:45:00 10° 192° (SSW) 2,320 6.0 -5.6°
Sets 03:47:18 0° 194° (SSW) 3,243 6.8 -5.3°
